AV279 Weather Reports


time (UTC)temp
F
wind
direction
speed
knots
gust
knots
rain 1hr
in
rain 24hr
in
rain mn
in
humidity
%
barometer
mb
20260901050729 59 0.0 0.9 0.00 0.21 0.01 93 1018.5
20260901045751 59 0.0 0.0 0.00 0.21 0.01 93 1018.4
20260901044739 60 225 0.9 1.7 0.00 0.21 0.01 93 1018.4
20260901043759 60 0.0 0.0 0.00 0.21 0.01 93 1018.2
20260901042729 60 0.0 0.0 0.00 0.21 0.01 93 1018.1
20260901041739 60 0.0 0.0 0.00 0.21 0.01 93 1018.0
20260901040729 60 0.0 0.0 0.00 0.21 0.01 93 1018.1
20260901035718 60 0.0 0.0 0.00 0.21 0.01 93 1017.9
20260901034719 60 0.0 0.0 0.00 0.21 0.01 93 1017.9
20260901033932 60 0.0 0.0 0.00 0.22 0.01 94 1017.9
20260901033618 60 0.0 0.0 0.00 0.22 0.01 93 1017.9
20260901032639 60 0.0 0.0 0.00 0.22 0.01 93 1017.9
20260901031618 60 0.0 0.0 0.00 0.22 0.01 93 1017.9
20260901030817 61 225 0.9 1.7 0.01 0.22 0.01 93 1017.8
20260901025618 61 270 1.7 1.7 0.01 0.22 0.01 94 1017.7
20260901024618 61 270 0.9 1.7 0.01 0.24 0.01 94 1017.8
20260901023618 61 0.0 0.0 0.01 0.28 0.01 94 1017.6
20260901022618 61 0.0 0.0 0.01 0.28 0.01 93 1017.6
20260901021618 61 0.0 0.0 0.01 0.28 0.01 93 1017.6
20260901020618 61 0.0 0.0 0.00 0.28 0.00 94 1017.7
20260901015640 61 225 0.9 2.6 0.00 0.28 0.00 94 1017.8
20260901014639 62 225 0.9 1.7 0.00 0.28 0.00 94 1017.6
20260901013618 62 225 0.9 1.7 0.00 0.28 0.00 94 1017.7
20260901012618 62 225 0.9 1.7 0.00 0.28 0.00 94 1017.7
20260901011618 62 315 0.9 1.7 0.00 0.28 0.00 94 1017.7
20260901010620 62 248 1.7 2.6 0.00 0.28 0.00 94 1017.7
20260901005640 62 0.0 0.0 0.00 0.29 0.00 94 1017.5
20260901004618 62 248 1.7 2.6 0.00 0.29 0.00 94 1017.6
20260901003620 62 270 1.7 1.7 0.00 0.29 0.00 94 1017.4
20260901002618 62 293 1.7 2.6 0.00 0.32 0.00 94 1017.4
20260901001629 62 225 0.9 1.7 0.00 0.46 0.00 94 1017.5
20260901000619 62 203 0.9 1.7 0.00 0.47 0.00 94 1017.4
20260831235618 62 293 0.9 1.7 0.00 0.47 0.47 94 1017.5
20260831234619 63 225 1.7 2.6 0.00 0.47 0.47 94 1017.4
20260831233619 63 293 1.7 2.6 0.00 0.47 0.47 94 1017.4
20260831232629 63 0.0 0.0 0.00 0.47 0.47 94 1017.4
20260831231618 63 225 1.7 3.5 0.00 0.47 0.47 94 1017.4
20260831230629 63 225 1.7 3.5 0.00 0.47 0.47 94 1017.4
20260831225629 63 203 1.7 2.6 0.00 0.47 0.47 93 1017.5
20260831224618 63 225 2.6 5.2 0.00 0.47 0.47 93 1017.5
20260831223618 63 225 1.7 2.6 0.00 0.47 0.47 93 1017.5
20260831222650 63 203 2.6 4.3 0.00 0.47 0.47 93 1017.5
20260831221618 63 225 1.7 3.5 0.00 0.47 0.47 93 1017.4
20260831220640 63 203 1.7 2.6 0.00 0.47 0.47 93 1017.4
20260831215618 62 225 1.7 2.6 0.00 0.47 0.47 93 1017.3
20260831214629 62 225 2.6 3.5 0.02 0.47 0.47 93 1017.4
20260831213618 62 203 0.9 1.7 0.06 0.47 0.47 92 1017.2
20260831212618 61 203 0.9 1.7 0.17 0.47 0.47 92 1017.2
20260831211618 61 0.0 0.0 0.17 0.47 0.47 91 1017.0
20260831210638 61 225 0.9 1.7 0.17 0.47 0.47 91 1017.0
20260831205619 62 248 0.9 2.6 0.17 0.47 0.47 90 1017.2
20260831204619 62 248 0.9 1.7 0.15 0.45 0.45 89 1017.1
20260831203640 65 270 3.5 6.1 0.11 0.41 0.41 86 1017.1
20260831202640 66 225 1.7 2.6 0.00 0.30 0.30 86 1017.0
20260831201618 66 225 1.7 3.5 0.00 0.30 0.30 85 1017.0
20260831200629 65 203 1.7 3.5 0.00 0.30 0.30 83 1016.8
20260831195649 65 0 0.9 0.9 0.00 0.30 0.30 81 1016.8
20260831194618 65 0.0 0.9 0.00 0.30 0.30 82 1016.8
20260831193618 66 0 0.9 1.7 0.00 0.30 0.30 86 1016.6
20260831192629 65 293 1.7 2.6 0.00 0.30 0.30 86 1016.5
20260831191641 65 270 1.7 3.5 0.00 0.30 0.30 85 1016.1
20260831190618 66 270 2.6 6.1 0.00 0.31 0.30 85 1015.8
20260831185618 66 248 2.6 5.2 0.00 0.31 0.30 84 1015.7
20260831184620 66 225 5.2 10.4 0.00 0.31 0.30 83 1015.7
20260831183640 66 248 3.5 5.2 0.00 0.32 0.30 83 1015.4
20260831182649 67 225 2.6 3.5 0.00 0.33 0.30 82 1015.4
20260831181618 67 248 5.2 13.9 0.00 0.33 0.30 82 1015.1
20260831180826 67 248 2.6 3.5 0.00 0.33 0.30 81 1015.1
20260831175820 68 248 3.5 7.0 0.00 0.33 0.30 81 1015.0
20260831174818 68 248 4.3 7.8 0.00 0.33 0.30 81 1015.0
20260831173818 68 225 8.7 16.5 0.00 0.33 0.30 80 1014.8
20260831172820 68 270 4.3 7.8 0.00 0.33 0.30 79 1014.7
20260831171818 69 225 4.3 9.6 0.00 0.33 0.30 78 1014.7
20260831170820 69 293 6.1 11.3 0.00 0.33 0.30 78 1014.6
20260831165840 69 248 5.2 8.7 0.00 0.33 0.30 78 1014.6
20260831164851 69 270 5.2 10.4 0.00 0.33 0.30 78 1014.5
20260831163841 70 248 4.3 7.0 0.00 0.33 0.30 77 1014.4
20260831163019 70 270 4.3 8.7 0.00 0.33 0.30 76 1014.2
20260831162320 70 248 4.3 7.8 0.00 0.33 0.30 75 1014.1
20260831161330 70 270 5.2 7.8 0.00 0.33 0.30 75 1014.1
20260831160350 70 270 4.3 8.7 0.00 0.33 0.30 74 1014.0
20260831155320 70 248 5.2 9.6 0.00 0.34 0.30 74 1013.8
20260831154320 71 248 4.3 7.8 0.00 0.36 0.30 74 1013.7
20260831153320 71 248 4.3 7.0 0.00 0.38 0.30 72 1013.5
20260831152320 71 270 4.3 7.0 0.00 0.38 0.30 72 1013.5
20260831151320 71 225 3.5 7.0 0.00 0.38 0.30 70 1013.4
20260831150352 71 293 5.2 8.7 0.00 0.38 0.30 70 1013.4
20260831145352 71 248 5.2 7.8 0.00 0.38 0.30 70 1013.3
20260831144401 71 270 3.5 6.1 0.00 0.38 0.30 70 1013.3
20260831143324 72 225 4.3 7.8 0.00 0.38 0.30 69 1013.1
20260831142320 72 248 4.3 6.1 0.00 0.38 0.30 70 1012.9
20260831141513 71 270 3.5 7.0 0.00 0.38 0.30 68 1012.9
20260831140432 72 248 4.3 12.2 0.00 0.38 0.30 67 1012.8
20260831135400 71 270 2.6 5.2 0.00 0.38 0.30 67 1012.7
20260831134320 71 270 4.3 7.8 0.00 0.38 0.30 66 1012.5
20260831133340 72 248 4.3 7.0 0.00 0.38 0.30 64 1012.4
20260831132330 72 248 4.3 7.0 0.00 0.38 0.30 66 1012.4
20260831131320 72 248 3.5 5.2 0.00 0.38 0.30 66 1012.1
20260831130319 71 270 3.5 7.0 0.00 0.38 0.30 68 1011.9
20260831125339 69 270 3.5 7.0 0.00 0.38 0.30 72 1011.9
20260831124527 68 293 2.6 4.3 0.00 0.38 0.30 72 1011.7
20260831124220 68 270 3.5 6.1 0.00 0.38 0.30 73 1011.7
20260831123219 68 270 2.6 5.2 0.00 0.38 0.30 72 1011.6
20260831122219 69 225 1.7 6.1 0.00 0.38 0.30 72 1011.4
20260831121220 68 270 4.3 8.7 0.00 0.38 0.30 71 1011.4
20260831120220 70 248 3.5 6.1 0.00 0.38 0.30 69 1011.1
20260831115219 71 270 4.3 7.0 0.00 0.38 0.30 68 1011.0
20260831114230 70 270 5.2 8.7 0.00 0.38 0.30 68 1010.9
20260831113241 71 270 5.2 12.2 0.00 0.38 0.30 69 1010.8
20260831112230 71 248 2.6 3.5 0.00 0.38 0.30 68 1010.7
20260831111413 71 270 3.5 6.1 0.00 0.38 0.30 70 1010.6
20260831111151 71 270 4.3 8.7 0.00 0.38 0.30 70 1010.5
20260831110200 69 270 4.3 8.7 0.00 0.38 0.30 75 1010.5
20260831105200 69 248 5.2 8.7 0.00 0.38 0.30 72 1010.5
20260831104210 69 270 5.2 8.7 0.00 0.38 0.30 72 1010.4
20260831103119 69 293 4.3 7.0 0.00 0.38 0.30 72 1010.2
20260831102141 69 270 1.7 4.3 0.00 0.38 0.30 73 1010.2
20260831101152 68 248 5.2 9.6 0.00 0.38 0.30 73 1010.2
20260831100119 68 270 4.3 9.6 0.00 0.38 0.30 72 1009.9
20260831095151 69 270 4.3 7.0 0.00 0.38 0.30 75 1009.7
20260831094119 69 270 5.2 8.7 0.00 0.38 0.30 75 1009.6
20260831093119 68 270 4.3 7.8 0.00 0.38 0.30 79 1009.5
20260831092119 67 293 3.5 5.2 0.00 0.38 0.30 83 1009.3
20260831091119 67 248 3.5 7.0 0.00 0.38 0.30 85 1009.3
20260831090119 66 225 3.5 5.2 0.00 0.38 0.30 86 1009.2
20260831085141 65 225 8.7 13.0 0.00 0.38 0.30 88 1009.1
20260831084129 64 270 2.6 5.2 0.00 0.38 0.30 91 1008.9
20260831083338 63 270 3.5 5.2 0.00 0.38 0.30 92 1008.7
20260831082719 62 225 4.3 6.1 0.00 0.38 0.30 92 1008.7
20260831081740 62 225 3.5 4.3 0.00 0.38 0.30 92 1008.7
20260831080719 61 248 4.3 6.1 0.00 0.38 0.30 92 1008.6
20260831075719 61 270 3.5 5.2 0.01 0.38 0.30 92 1008.5
20260831074719 61 225 3.5 6.1 0.01 0.38 0.30 92 1008.3
20260831073929 61 225 5.2 9.6 0.01 0.38 0.30 93 1008.3
20260831072839 60 225 5.2 8.7 0.02 0.38 0.30 93 1008.3
20260831071819 60 225 3.5 6.1 0.02 0.38 0.30 93 1008.3
20260831070819 60 225 4.3 7.8 0.02 0.38 0.30 93 1008.2
20260831065830 60 248 2.6 7.0 0.02 0.37 0.29 93 1008.2
20260831065036 60 225 4.3 7.8 0.02 0.37 0.29 93 1008.1
20260831063839 60 248 4.3 9.6 0.02 0.37 0.29 93 1008.0
20260831062819 60 248 4.3 6.1 0.02 0.36 0.28 92 1008.1
20260831061819 61 225 1.7 3.5 0.02 0.36 0.28 92 1007.9
20260831060830 61 225 5.2 9.6 0.02 0.36 0.28 92 1007.9
20260831055850 61 248 5.2 9.6 0.01 0.35 0.28 92 1007.8
20260831054819 61 225 6.1 9.6 0.00 0.35 0.27 92 1007.7
20260831053819 61 225 6.1 13.0 0.00 0.35 0.27 92 1007.6
20260831052819 61 248 3.5 6.1 0.00 0.35 0.27 92 1007.6
20260831051829 61 203 8.7 11.3 0.00 0.35 0.27 92 1007.0